When you browse on this site, cookies collect data to enhance your experience and personalize the content and advertising you see.
Visit our Privacy Policy to learn more. By continuing to use the site, you agree to this use of cookies and data.
  • In Österreich
  • Länderverzeichnis
  • Für 7 Tage
  • Wassertemperatur
  • Wetterkarte
  • News
  • Widgets
  • user-avatar
    Anmelden

    Stündliche Wetter Sredibore

    Heute, 18 September, Mittwoch

    Zeit Temperatur Niederschläge Wind Luftdruck Luftfeuchtigkeit
    00:00 +7°C° 1 mm 4 m/S 739 mmHg 85%
    01:00 +7°C° 1 mm 4 m/S 738 mmHg 88%
    02:00 +6°C° 0 mm 4 m/S 738 mmHg 92%
    03:00 +6°C° 1.5 mm 5 m/S 738 mmHg 91%
    04:00 +6°C° 1.5 mm 5 m/S 738 mmHg 90%
    05:00 +5°C° 1.5 mm 6 m/S 738 mmHg 90%
    06:00 +5°C° 0.2 mm 6 m/S 738 mmHg 89%
    07:00 +5°C° 0.2 mm 6 m/S 739 mmHg 88%
    08:00 +5°C° 0.2 mm 6 m/S 739 mmHg 87%
    09:00 +5°C° 0.1 mm 6 m/S 739 mmHg 84%
    10:00 +7°C° 0.1 mm 6 m/S 740 mmHg 82%
    11:00 +8°C° 0.1 mm 6 m/S 740 mmHg 79%
    12:00 +8°C° 0.1 mm 6 m/S 741 mmHg 77%
    13:00 +8°C° 0.1 mm 6 m/S 741 mmHg 76%
    14:00 +9°C° 0.1 mm 7 m/S 741 mmHg 74%
    15:00 +9°C° 0.1 mm 6 m/S 742 mmHg 73%
    16:00 +9°C° 0.1 mm 5 m/S 743 mmHg 71%
    17:00 +10°C° 0.1 mm 5 m/S 743 mmHg 70%
    18:00 +9°C° 0 mm 5 m/S 744 mmHg 74%
    19:00 +8°C° 0 mm 5 m/S 745 mmHg 79%
    20:00 +7°C° 0 mm 5 m/S 745 mmHg 83%
    21:00 +7°C° 0.1 mm 5 m/S 745 mmHg 83%
    22:00 +7°C° 0.1 mm 5 m/S 746 mmHg 84%
    23:00 +7°C° 0.1 mm 5 m/S 746 mmHg 84%

    Morgen, 19 September, Donnerstag

    Zeit Temperatur Niederschläge Wind Luftdruck Luftfeuchtigkeit
    00:00 +7°C° 0 mm 5 m/S 746 mmHg 86%
    01:00 +7°C° 0 mm 5 m/S 747 mmHg 88%
    02:00 +6°C° 0 mm 5 m/S 747 mmHg 89%
    03:00 +7°C° 0 mm 5 m/S 747 mmHg 89%
    04:00 +7°C° 0 mm 5 m/S 748 mmHg 88%
    05:00 +7°C° 0 mm 5 m/S 748 mmHg 88%
    06:00 +7°C° 0 mm 5 m/S 748 mmHg 86%
    07:00 +7°C° 0 mm 5 m/S 748 mmHg 85%
    08:00 +7°C° 0 mm 5 m/S 749 mmHg 83%
    09:00 +7°C° 0 mm 5 m/S 749 mmHg 81%
    10:00 +8°C° 0 mm 4 m/S 750 mmHg 80%
    11:00 +8°C° 0 mm 4 m/S 750 mmHg 78%
    12:00 +10°C° 0 mm 4 m/S 750 mmHg 74%
    13:00 +11°C° 0 mm 4 m/S 750 mmHg 70%
    14:00 +12°C° 0 mm 4 m/S 750 mmHg 66%
    15:00 +12°C° 0 mm 3 m/S 750 mmHg 66%
    16:00 +12°C° 0 mm 3 m/S 750 mmHg 66%
    17:00 +13°C° 0 mm 2 m/S 750 mmHg 65%
    18:00 +10°C° 0.1 mm 2 m/S 750 mmHg 73%
    19:00 +9°C° 0.1 mm 2 m/S 750 mmHg 80%
    20:00 +8°C° 0.1 mm 2 m/S 750 mmHg 87%
    21:00 +7°C° 0 mm 3 m/S 751 mmHg 88%
    22:00 +7°C° 0 mm 3 m/S 751 mmHg 90%
    23:00 +7°C° 0 mm 3 m/S 751 mmHg 91%

    übermorgen, 20 September, Freitag

    Zeit Temperatur Niederschläge Wind Luftdruck Luftfeuchtigkeit
    00:00 +7°C° 0 mm 3 m/S 751 mmHg 92%
    01:00 +5°C° 0 mm 3 m/S 750 mmHg 93%
    02:00 +5°C° 0 mm 4 m/S 750 mmHg 94%
    03:00 +5°C° 0.1 mm 4 m/S 750 mmHg 93%
    04:00 +5°C° 0.1 mm 4 m/S 751 mmHg 92%
    05:00 +6°C° 0.1 mm 4 m/S 751 mmHg 91%
    06:00 +6°C° 0 mm 4 m/S 751 mmHg 90%
    07:00 +6°C° 0 mm 5 m/S 751 mmHg 88%
    08:00 +6°C° 0 mm 5 m/S 751 mmHg 87%
    09:00 +6°C° 0 mm 5 m/S 752 mmHg 80%
    10:00 +7°C° 0 mm 6 m/S 752 mmHg 73%
    11:00 +8°C° 0 mm 6 m/S 752 mmHg 66%
    12:00 +9°C° 0.3 mm 6 m/S 752 mmHg 62%
    13:00 +9°C° 0.3 mm 6 m/S 752 mmHg 58%
    14:00 +10°C° 0.3 mm 6 m/S 752 mmHg 54%
    15:00 +10°C° 0.1 mm 5 m/S 752 mmHg 56%
    16:00 +9°C° 0.1 mm 5 m/S 752 mmHg 59%
    17:00 +10°C° 0.1 mm 4 m/S 752 mmHg 61%
    18:00 +7°C° 0 mm 4 m/S 753 mmHg 67%
    19:00 +7°C° 0 mm 3 m/S 753 mmHg 72%
    20:00 +4°C° 0 mm 3 m/S 754 mmHg 78%
    21:00 +5°C° 0 mm 2 m/S 754 mmHg 80%
    22:00 +4°C° 0 mm 2 m/S 754 mmHg 82%
    23:00 +4°C° 0 mm 2 m/S 754 mmHg 83%

    21 September, Samstag

    Zeit Temperatur Niederschläge Wind Luftdruck Luftfeuchtigkeit
    00:00 +4°C° 0 mm 2 m/S 755 mmHg 84%
    01:00 +3°C° 0 mm 2 m/S 755 mmHg 85%
    02:00 +3°C° 0 mm 2 m/S 755 mmHg 86%
    03:00 +3°C° 0 mm 2 m/S 755 mmHg 86%
    04:00 +3°C° 0 mm 2 m/S 755 mmHg 85%
    05:00 +3°C° 0 mm 2 m/S 755 mmHg 84%
    06:00 +4°C° 0 mm 2 m/S 755 mmHg 79%
    07:00 +5°C° 0 mm 2 m/S 755 mmHg 75%
    08:00 +7°C° 0 mm 2 m/S 754 mmHg 70%
    09:00 +8°C° 0 mm 3 m/S 754 mmHg 69%
    10:00 +9°C° 0 mm 3 m/S 754 mmHg 68%
    11:00 +10°C° 0 mm 4 m/S 754 mmHg 67%
    12:00 +10°C° 0.1 mm 4 m/S 754 mmHg 71%
    13:00 +10°C° 0.1 mm 4 m/S 753 mmHg 76%
    14:00 +10°C° 0.1 mm 4 m/S 753 mmHg 80%
    15:00 +11°C° 0 mm 4 m/S 753 mmHg 78%
    16:00 +12°C° 0 mm 4 m/S 752 mmHg 77%
    17:00 +14°C° 0 mm 4 m/S 752 mmHg 75%
    18:00 +13°C° 0 mm 4 m/S 752 mmHg 76%
    19:00 +13°C° 0 mm 4 m/S 752 mmHg 77%
    20:00 +13°C° 0 mm 4 m/S 752 mmHg 78%
    21:00 +12°C° 0 mm 4 m/S 752 mmHg 81%
    22:00 +12°C° 0 mm 4 m/S 752 mmHg 84%
    23:00 +10°C° 0 mm 5 m/S 751 mmHg 87%

    22 September, Sonntag

    Zeit Temperatur Niederschläge Wind Luftdruck Luftfeuchtigkeit
    00:00 +10°C° 0 mm 5 m/S 751 mmHg 88%
    01:00 +9°C° 0 mm 5 m/S 751 mmHg 88%
    02:00 +9°C° 0 mm 5 m/S 751 mmHg 89%
    03:00 +9°C° 0 mm 5 m/S 751 mmHg 90%
    04:00 +8°C° 0 mm 5 m/S 751 mmHg 91%
    05:00 +8°C° 0 mm 4 m/S 751 mmHg 91%
    06:00 +10°C° 0 mm 4 m/S 751 mmHg 89%
    07:00 +10°C° 0 mm 4 m/S 751 mmHg 87%
    08:00 +11°C° 0 mm 4 m/S 751 mmHg 85%
    09:00 +12°C° 0 mm 4 m/S 751 mmHg 81%
    10:00 +13°C° 0 mm 4 m/S 751 mmHg 77%
    11:00 +14°C° 0 mm 4 m/S 751 mmHg 74%
    12:00 +16°C° 0 mm 3 m/S 751 mmHg 69%
    13:00 +18°C° 0 mm 3 m/S 751 mmHg 64%
    14:00 +19°C° 0 mm 3 m/S 751 mmHg 59%
    15:00 +18°C° 0 mm 2 m/S 751 mmHg 62%
    16:00 +18°C° 0 mm 2 m/S 750 mmHg 65%
    17:00 +18°C° 0 mm 1 m/S 750 mmHg 69%
    18:00 +16°C° 0 mm 1 m/S 750 mmHg 73%
    19:00 +14°C° 0 mm 2 m/S 750 mmHg 78%
    20:00 +13°C° 0 mm 2 m/S 750 mmHg 83%
    21:00 +12°C° 0 mm 2 m/S 751 mmHg 81%
    22:00 +11°C° 0 mm 3 m/S 751 mmHg 80%
    23:00 +10°C° 0 mm 3 m/S 751 mmHg 79%

    23 September, Montag

    Zeit Temperatur Niederschläge Wind Luftdruck Luftfeuchtigkeit
    00:00 +10°C° 0 mm 3 m/S 751 mmHg 75%
    01:00 +10°C° 0 mm 3 m/S 751 mmHg 71%
    02:00 +10°C° 0 mm 3 m/S 751 mmHg 68%
    03:00 +9°C° 0 mm 3 m/S 750 mmHg 68%
    04:00 +9°C° 0 mm 3 m/S 750 mmHg 69%
    05:00 +8°C° 0 mm 3 m/S 750 mmHg 70%
    06:00 +7°C° 0 mm 4 m/S 749 mmHg 67%
    07:00 +8°C° 0 mm 4 m/S 749 mmHg 64%
    08:00 +8°C° 0 mm 4 m/S 749 mmHg 62%
    09:00 +11°C° 0 mm 4 m/S 749 mmHg 60%
    10:00 +12°C° 0 mm 4 m/S 749 mmHg 58%
    11:00 +13°C° 0 mm 4 m/S 749 mmHg 56%
    12:00 +14°C° 0 mm 4 m/S 748 mmHg 56%
    13:00 +14°C° 0 mm 4 m/S 748 mmHg 55%
    14:00 +15°C° 0 mm 4 m/S 747 mmHg 55%
    15:00 +14°C° 0 mm 4 m/S 747 mmHg 57%
    16:00 +14°C° 0 mm 4 m/S 747 mmHg 58%
    17:00 +14°C° 0 mm 3 m/S 747 mmHg 60%
    18:00 +12°C° 0 mm 3 m/S 747 mmHg 62%
    19:00 +10°C° 0 mm 3 m/S 747 mmHg 65%
    20:00 +9°C° 0 mm 3 m/S 747 mmHg 67%
    21:00 +8°C° 0 mm 3 m/S 747 mmHg 66%
    22:00 +8°C° 0 mm 3 m/S 747 mmHg 66%
    23:00 +7°C° 0 mm 3 m/S 747 mmHg 65%
    Mehr zeigen